Flag for Belgium Weather past 2 weeks in Leuven, Belgium

Now
63 °F

Clear.


Feels Like: 63 °F
Forecast: 71 / 88 °F
Wind: 6 mph from Southeast

Location: Brussels National Airport

Current Time: Jul 1, 2015 at 7:10:10 AM

Latest Report: Jul 1, 2015 at 6:20 AM


Visibility: 10 mi

Pressure: 30.04 "Hg

Humidity: 68%

Dew point: 52 °F

Location of LeuvenLocation

Historic Weather in Leuven — Graph

°F

Leuven temperature yesterday

Maximum temperature yesterday: 82 °F (at 3:50 PM)
Minimum temperature yesterday: 52 °F (at 4:50 AM)
Average temperature yesterday: 69 °F

Past Weeks' High & Low Weather Summary

 TemperatureHumidityPressure
High82 °F (Jun 30, 3:50 PM)100% (Jun 18, 4:20 AM)30.30 "Hg (Jun 18, 4:20 AM)
Low43 °F (Jun 17, 4:50 AM)30% (Jun 30, 5:50 PM)29.74 "Hg (Jun 22, 5:20 PM)
Average62 °F69%30.10 "Hg
* Reported Jun 16 5:20 AM — Jul 1 5:50 AM, Leuven, Weather by CustomWeather, © 2015

Note: Actual official high and low records may vary slightly from our data, if they occured in-between our weather recording intervals... More about our weather records

Advertising

Leuven weather history for previous 24 hours

 ConditionsComfort  
Time TempWeatherWind HumidityBarometerVisibility
5:50 AM
Wed, Jul 1
61 °FClear.5 mph72%30.04 "Hg10 mi
5:20 AM63 °FClear.3 mph68%30.04 "Hg10 mi
4:50 AM63 °FClear.3 mph68%30.04 "Hg10 mi
4:20 AM63 °FClear.2 mph68%30.04 "Hg10 mi
3:50 AM61 °FClear.1 mph72%30.04 "Hg10 mi
3:20 AM63 °FPassing clouds.3 mph68%30.04 "HgN/A
2:50 AM66 °FClear.6 mph60%30.04 "Hg10 mi
2:20 AM68 °FClear.7 mph56%30.04 "Hg10 mi
1:50 AM68 °FClear.5 mph56%30.04 "Hg10 mi
1:20 AM68 °FClear.6 mph56%30.04 "Hg10 mi
12:50 AM70 °FClear.7 mph50%30.04 "Hg10 mi
12:20 AM68 °FClear.6 mph53%30.07 "Hg10 mi
11:50 PM
Tue, Jun 30
70 °FClear.5 mph50%30.07 "Hg10 mi
11:20 PM72 °FClear.5 mph50%30.07 "Hg10 mi
10:50 PM73 °FSunny.5 mph47%30.07 "Hg10 mi
10:20 PM75 °FSunny.3 mph47%30.07 "Hg10 mi
9:50 PM75 °FSunny.5 mph44%30.07 "Hg10 mi
9:20 PM77 °FPassing clouds.3 mph42%30.07 "HgN/A
8:50 PM79 °FSunny.5 mph39%30.07 "Hg10 mi
8:20 PM79 °FSunny.5 mph45%30.07 "Hg10 mi
7:50 PM81 °FSunny.6 mph37%30.07 "Hg10 mi
6:50 PM82 °FPassing clouds.6 mph30%30.07 "HgN/A
6:20 PM82 °FPassing clouds.5 mph32%30.09 "HgN/A
5:50 PM82 °FPassing clouds.5 mph30%30.09 "HgN/A
4:50 PM82 °FPassing clouds.6 mph32%30.09 "HgN/A
4:20 PM82 °FPassing clouds.7 mph32%30.12 "HgN/A
3:50 PM82 °FPassing clouds.6 mph35%30.12 "HgN/A
2:50 PM81 °FPassing clouds.8 mph39%30.12 "HgN/A
2:20 PM81 °FSunny.7 mph37%30.15 "Hg10 mi
1:50 PM79 °FPassing clouds.6 mph42%30.15 "HgN/A
1:20 PM77 °FPassing clouds.7 mph44%30.15 "HgN/A
12:50 PM77 °FPassing clouds.6 mph44%30.15 "HgN/A
12:20 PM77 °FPassing clouds.7 mph44%30.15 "HgN/A
11:50 AM75 °FPassing clouds.7 mph54%30.18 "HgN/A
11:20 AM75 °FPassing clouds.7 mph50%30.18 "HgN/A
10:50 AM73 °FPassing clouds.6 mph57%30.18 "HgN/A
10:20 AM73 °FPassing clouds.6 mph53%30.18 "HgN/A
9:50 AM72 °FPassing clouds.6 mph57%30.18 "HgN/A
9:20 AM70 °FPassing clouds.5 mph64%30.18 "HgN/A
8:50 AM68 °FPassing clouds.3 mph73%30.18 "HgN/A
8:20 AM64 °FSunny.1 mph83%30.18 "Hg10 mi
7:50 AM61 °FSunny.2 mph88%30.18 "Hg10 mi
7:20 AM61 °FSunny.No wind83%30.18 "Hg10 mi
Weather by CustomWeather, © 2015

See weather overviewHow to use our weather pages